sat.trackr.live / text

‹ back to catalog

EUTELSAT 3B

NORAD 39773 · 2014-030A

PAYLOAD ACTIVE UNKNOWN

§ Identity

Operator
Country
EUTE
Launch date
2014-05-26
Launch site
SEAL
Launch vehicle
Mass (kg)
RCS (m²)
79.44

Purposes: comms

External: N2YO · Heavens-Above · Gunter

§ Orbital elements

Epoch: 2026-05-25T03:45:32.172768Z

Period
1,436.08 min
Inclination
0.0684°
Eccentricity
0.0004013
Mean motion
1.00273217 rev/d
Perigee alt
35,769.3 km
Apogee alt
35,803.1 km
Semi-major
42,164.3 km
B*
0.0000e+0
RAAN
16.0617°
Arg perigee
45.1539°
Mean anomaly
241.0142°
Rev number
4,383

§ Raw data

EUTELSAT 3B1 39773U 14030A   26145.15662237  .00000018  00000+0  00000+0 0  99942 39773   0.0684  16.0617 0004013  45.1539 241.0142  1.00273217 43830

JSON: /api/v1/satellites/39773 · /tle

For live sub-satellite position, see the globe view (requires WebGL).

§ Visibility from observer

Set your observer location to see the next 7 days of passes ≥ 10°. The values pass through the URL so the page stays shareable.

No JS? Fill the form by hand. The geolocation button needs JavaScript.